Location: Excel
(51.3833°N, 110.5667°W)
Time: 14:42:24
(UTC+00:00)

Envisat - Pass Details

Date: 05 December 2021
Orbit: 764 x 766 km, 98.2° (Epoch: 28 January)

Event Time Altitude Azimuth Distance (km) Brightness Sun altitude
Rises 11:34:05 0° 22° (NNE) 3,247 6.6 -32.6°
Reaches altitude 10° 11:36:43 10° 34° (NNE) 2,316 5.9 -32.2°
Maximum altitude 11:41:07 28° 93° (E) 1,401 4.9 -31.5°
Drops below altitude 10° 11:45:28 10° 152° (SSE) 2,299 5.7 -30.9°
Sets 11:48:03 0° 164° (SSE) 3,220 6.4 -30.5°
